Weather History for Hayward, WI

Change the Weather History Date:

Thursday, November 22, 2012

  Actual Average Record
Temperature  
Mean Temperature 42 °F -  
Max Temperature 59 °F 36 °F 59 °F (2012)
Min Temperature 24 °F 18 °F 1 °F (2000)
Degree Days  
Heating Degree Days 24    
Moisture  
Dew Point 30 °F    
Average Humidity 76    
Maximum Humidity 93    
Minimum Humidity 49    
Precipitation  
Precipitation 0.10 in - - ()
Sea Level Pressure  
Sea Level Pressure 29.71 in    
Wind  
Wind Speed 9 mph (WSW)    
Max Wind Speed 14 mph    
Max Gust Speed 29 mph    
Visibility 5 miles    
Events Fog , Snow    
Averages and records for this station are not official NWS values.
T = Trace of Precipitation, MM = Missing Value Source: NWS Daily Summary

Daily Weather History Graph

Daily Weather History Graph

Search for Another Location

Airport:

Trip Planner

Search our weather history database for the weather conditions in past years. The results will help you decide how hot, cold, wet, or windy it might be!

Date:

Astronomy

Nov. 22, 2012 Rise Set
Actual Time 7:16 AM CST 4:27 PM CST
Civil Twilight 6:43 AM CST 5:00 PM CST
Nautical Twilight 6:06 AM CST 5:37 PM CST
Astronomical Twilight 5:30 AM CST 6:12 PM CST
Moon 1:27 PM CST (11/22) 1:20 AM CST (11/22)
Length of Visible Light 10h 16m
Length of Day
9h 10m
Waxing Gibbous, 71% of the Moon is Illuminated
Nov 22
Waxing Gibbous
Nov 28
Full
Dec 6
Last Quarter
Dec 13
New
Dec 19
First Quarter

Hourly Weather History & Observations

Time (CST) Temp. Windchill Dew Point Humidity Pressure Visibility Wind Dir Wind Speed Gust Speed Precip Events Conditions
12:53 AM 57.0 °F - 41.0 °F 55% 29.71 in 10.0 mi South 10.4 mph 24.2 mph N/A   Clear
1:53 AM 55.9 °F - 39.9 °F 55% 29.69 in 10.0 mi SSW 8.1 mph 28.8 mph N/A   Clear
2:53 AM 55.0 °F - 39.9 °F 57% 29.66 in 10.0 mi South 11.5 mph 18.4 mph N/A   Clear
3:53 AM 54.0 °F - 39.9 °F 59% 29.65 in 10.0 mi SSW 9.2 mph 16.1 mph N/A   Clear
4:53 AM 53.1 °F - 39.9 °F 61% 29.64 in 10.0 mi South 10.4 mph 20.7 mph N/A   Clear
5:53 AM 52.0 °F - 39.9 °F 63% 29.64 in 10.0 mi SSW 9.2 mph - N/A   Clear
6:53 AM 51.1 °F - 39.9 °F 66% 29.63 in 10.0 mi SSW 6.9 mph - N/A   Clear
7:53 AM 50.0 °F - 39.9 °F 68% 29.63 in 10.0 mi Variable 4.6 mph - N/A   Clear
8:53 AM 52.0 °F - 39.9 °F 63% 29.62 in 10.0 mi SSW 8.1 mph - N/A   Clear
9:53 AM 55.0 °F - 41.0 °F 59% 29.61 in 10.0 mi Variable 6.9 mph 17.3 mph N/A   Clear
10:53 AM 55.9 °F - 39.9 °F 55% 29.60 in 10.0 mi SSW 11.5 mph 17.3 mph N/A   Clear
11:53 AM 57.9 °F - 39.9 °F 51% 29.58 in 10.0 mi Variable 5.8 mph - N/A   Clear
12:53 PM 59.0 °F - 39.9 °F 49% 29.58 in 10.0 mi Variable 4.6 mph - N/A   Clear
1:53 PM 57.9 °F - 39.9 °F 51% 29.59 in 10.0 mi Variable 5.8 mph - N/A   Clear
2:53 PM 55.9 °F - 39.0 °F 53% 29.60 in 10.0 mi West 8.1 mph - N/A   Clear
3:53 PM 52.0 °F - 37.0 °F 57% 29.63 in 10.0 mi West 4.6 mph - N/A   Mostly Cloudy
4:53 PM 45.0 °F 41.2 °F 35.1 °F 68% 29.68 in 10.0 mi Variable 6.9 mph 18.4 mph N/A   Overcast
5:13 PM 42.8 °F 37.0 °F 33.8 °F 70% 29.67 in 10.0 mi West 10.4 mph 20.7 mph N/A   Overcast
5:53 PM 37.9 °F 32.7 °F 30.0 °F 73% 29.72 in 10.0 mi Variable 6.9 mph 18.4 mph N/A   Overcast
6:30 PM 33.8 °F 27.0 °F 28.4 °F 81% 29.72 in 1.8 mi West 8.1 mph 19.6 mph 0.00 in Snow Light Snow
6:35 PM 33.8 °F 27.7 °F 30.2 °F 87% 29.72 in 1.0 mi Variable 6.9 mph 16.1 mph 0.00 in Snow Light Snow
6:44 PM 33.8 °F 28.6 °F 30.2 °F 87% 29.72 in 0.8 mi Variable 5.8 mph 16.1 mph 0.01 in Snow Light Snow
6:51 PM 32.0 °F 24.2 °F 30.2 °F 93% 29.72 in 0.8 mi West 9.2 mph - 0.02 in Snow Light Snow
6:53 PM 32.0 °F 26.4 °F 30.0 °F 92% 29.75 in 0.8 mi Variable 5.8 mph - 0.02 in Snow Light Snow
7:03 PM 32.0 °F 26.4 °F 30.2 °F 93% 29.73 in 0.8 mi Variable 5.8 mph - 0.01 in Snow Light Snow
7:29 PM 30.2 °F 21.3 °F 28.4 °F 93% 29.73 in 1.0 mi West 10.4 mph 16.1 mph 0.03 in Snow Light Snow
7:46 PM 30.2 °F 21.9 °F 26.6 °F 86% 29.74 in 0.8 mi West 9.2 mph 19.6 mph 0.04 in Snow Light Snow
7:50 PM 30.2 °F 21.9 °F 26.6 °F 86% 29.74 in 1.0 mi West 9.2 mph 18.4 mph 0.04 in Snow Light Snow
7:53 PM 30.0 °F 21.7 °F 27.0 °F 88% 29.78 in 1.0 mi West 9.2 mph 18.4 mph 0.04 in Snow Light Snow
8:01 PM 30.2 °F 23.4 °F 26.6 °F 86% 29.74 in 1.2 mi Variable 6.9 mph - 0.00 in Snow Light Snow
8:21 PM 28.4 °F 20.4 °F 26.6 °F 93% 29.75 in 1.8 mi West 8.1 mph - 0.00 in Snow Light Snow
8:30 PM 28.4 °F 19.1 °F 26.6 °F 93% 29.75 in 1.8 mi West 10.4 mph 20.7 mph 0.00 in Snow Light Snow
8:38 PM 28.4 °F 19.7 °F 24.8 °F 86% 29.75 in 1.2 mi West 9.2 mph 20.7 mph 0.00 in Snow Light Snow
8:42 PM 28.4 °F 20.4 °F 24.8 °F 86% 29.75 in 1.0 mi West 8.1 mph 16.1 mph 0.01 in Snow Light Snow
8:49 PM 28.4 °F 21.2 °F 24.8 °F 86% 29.75 in 1.5 mi Variable 6.9 mph 17.3 mph 0.01 in Snow Light Snow
8:53 PM 28.0 °F 19.3 °F 25.0 °F 88% 29.79 in 2.5 mi West 9.2 mph 17.3 mph 0.01 in Snow Light Snow
9:02 PM 28.4 °F 19.7 °F 24.8 °F 86% 29.75 in 1.8 mi West 9.2 mph 24.2 mph 0.00 in Snow Light Snow
9:09 PM 28.4 °F 17.5 °F 23.0 °F 80% 29.75 in 2.0 mi West 13.8 mph 24.2 mph 0.00 in Snow Light Snow
9:19 PM 26.6 °F 16.2 °F 23.0 °F 86% 29.75 in 2.5 mi West 11.5 mph 21.9 mph 0.00 in Snow Light Snow
9:30 PM 26.6 °F 16.8 °F 23.0 °F 86% 29.76 in 4.0 mi West 10.4 mph 20.7 mph 0.00 in Snow Light Snow
9:53 PM 26.1 °F 16.8 °F 21.0 °F 81% 29.80 in 2.5 mi West 9.2 mph 21.9 mph 0.00 in Snow Light Snow
10:03 PM 26.6 °F 18.2 °F 21.2 °F 80% 29.77 in 3.0 mi West 8.1 mph 17.3 mph 0.00 in Snow Light Snow
10:12 PM 24.8 °F 14.6 °F 21.2 °F 86% 29.77 in 1.8 mi West 10.4 mph 16.1 mph 0.00 in Snow Light Snow
10:18 PM 24.8 °F 16.9 °F 21.2 °F 86% 29.77 in 1.0 mi Variable 6.9 mph 16.1 mph 0.00 in Snow Light Snow
10:26 PM 24.8 °F 16.9 °F 21.2 °F 86% 29.76 in 0.8 mi West 6.9 mph - 0.00 in Snow Light Snow
10:42 PM 24.8 °F 16.1 °F 21.2 °F 86% 29.76 in 0.8 mi West 8.1 mph - 0.02 in Snow Light Snow
10:53 PM 25.0 °F 16.3 °F 21.0 °F 85% 29.80 in 0.5 mi West 8.1 mph 21.9 mph 0.02 in Fog , Snow Snow
11:03 PM 24.8 °F 15.3 °F 21.2 °F 86% 29.77 in 1.2 mi West 9.2 mph - 0.01 in Snow Light Snow
11:23 PM 24.8 °F 16.1 °F 19.4 °F 80% 29.77 in 1.5 mi West 8.1 mph 25.3 mph 0.01 in Snow Light Snow
11:32 PM 24.8 °F 16.1 °F 19.4 °F 80% 29.77 in 2.0 mi WSW 8.1 mph - 0.01 in Snow Light Snow
11:53 PM 24.1 °F 15.2 °F 19.9 °F 84% 29.80 in 1.8 mi WSW 8.1 mph 20.7 mph 0.01 in Snow Light Snow